Location: Dompnac
(44.5644°N, 4.1026°E)
Time: 02:56:37
(UTC+00:00)

USA 234 - Pass Details

Date: 22 January 2021
Orbit: 1100 x 1107 km, 123.0° (Epoch: 01 March)

Event Time Altitude Azimuth Distance (km) Brightness Sun altitude
Exits shadow 18:58:34 36° 39° (NE) 1,668 3.8 -24.7°
Maximum altitude 18:59:35 38° 19° (NNE) 1,612 3.9 -24.8°
Drops below altitude 10° 19:05:31 10° 314° (NW) 2,967 6.0 -25.9°
Sets 19:08:10 0° 307° (NW) 3,927 6.9 -26.4°
